Home   Weather   Perth   Past weeks

Flag for United Kingdom Past Weather in Perth, Scotland, United Kingdom — Yesterday and Last 2 Weeks

Now
45 °F

Sunny.


Feels Like: 39 °F
Forecast: 31 / 51 °F
Wind: 10 mph from West

Location: Leuchars

Current Time: Apr 27, 2017 at 6:47:38 am

Latest Report: Apr 27, 2017 at 5:50 am


Visibility: 10 mi

Pressure: 29.98 "Hg

Humidity: 76%

Dew Point: 37 °F

Location of PerthLocation

Past Weather in Perth — Graph

°F

Perth Temperature Yesterday

Maximum temperature yesterday: 48 °F (at 1:50 pm)
Minimum temperature yesterday: 30 °F (at 4:50 am)
Average temperature yesterday: 43 °F

High & Low Weather Summary for the Past Weeks

 TemperatureHumidityPressure
High63 °F (Apr 20, 12:50 pm)100% (Apr 25, 12:50 am)30.54 "Hg (Apr 25, 12:50 am)
Low28 °F (Apr 18, 4:50 am)37% (Apr 22, 1:50 pm)29.74 "Hg (Apr 14, 5:50 pm)
Average46 °F66%30.13 "Hg
* Reported Apr 12 4:50 am — Apr 27 4:50 am, Perth, Weather by CustomWeather, © 2017

Note: Actual official high and low records may vary slightly from our data, if they occured in-between our weather recording intervals... More about our weather records

Advertising

Perth Weather History for the Previous 24 Hours

Scroll right to see more
 ConditionsComfort  
Time TempWeatherWind HumidityBarometerVisibility
4:50 am
Thu, Apr 27
45 °FPartly cloudy.12 mph76%30.01 "HgN/A
3:50 am45 °FPassing clouds.10 mph71%30.01 "HgN/A
2:50 am46 °FPassing clouds.10 mph66%30.01 "HgN/A
1:50 am46 °FClear.9 mph66%30.04 "Hg10 mi
12:50 am45 °FPassing clouds.10 mph66%30.04 "HgN/A
11:50 pm
Wed, Apr 26
45 °FPartly cloudy.8 mph71%30.07 "HgN/A
10:50 pm46 °FClear.9 mph62%30.07 "Hg10 mi
9:50 pm46 °FSprinkles. Overcast.8 mph62%30.09 "HgN/A
8:50 pm46 °FSprinkles. Overcast.5 mph57%30.09 "HgN/A
7:50 pm46 °FSunny.2 mph57%30.09 "Hg10 mi
6:50 pm46 °FSunny.5 mph57%30.09 "Hg10 mi
5:58 pm48 °FSunny.5 mph46%30.09 "Hg10 mi
4:50 pm48 °FSunny.10 mph43%30.12 "Hg10 mi
3:50 pm48 °FSunny.12 mph43%30.12 "Hg10 mi
2:50 pm46 °FSunny.7 mph46%30.12 "Hg10 mi
1:50 pm48 °FBroken clouds.7 mph43%30.12 "HgN/A
12:50 pm46 °FSunny.10 mph46%30.12 "Hg10 mi
11:50 am46 °FSunny.13 mph43%30.12 "Hg10 mi
10:50 am46 °FScattered clouds.12 mph43%30.12 "HgN/A
9:50 am45 °FSunny.8 mph49%30.12 "Hg10 mi
8:50 am41 °FSunny.7 mph53%30.12 "Hg10 mi
7:50 am41 °FSunny.9 mph57%30.12 "Hg10 mi
6:50 am37 °FSunny.9 mph75%30.12 "Hg10 mi
Weather by CustomWeather, © 2017

See weather overviewHow to use our weather pages